Location: Geroldsau
(48.7259°N, 8.2466°E)
Time: 13:48:57
(UTC+00:00)

AQUA - Pass Details

Date: 20 June 2021
Orbit: 701 x 704 km, 98.2° (Epoch: 05 August)

Event Time Altitude Azimuth Distance (km) Brightness Sun altitude
Rises 01:44:03 0° 12° (NNE) 3,107 8.7 -11.8°
Reaches altitude 10° 01:46:19 10° 10° (N) 2,184 7.6 -11.6°
Maximum altitude 01:51:05 73° 287° (WNW) 740 3.9 -11.1°
Enters shadow 01:55:08 14° 204° (SSW) 1,893 5.4 -10.8°
